Location: LewisvilleTX
(33.0462°N, 96.9942°W)
Time: 21:36:22
(UTC+00:00)

N. Korean satellite - Pass Details

Date: 02 December 2021
Orbit: 447 x 490 km, 97.3° (Epoch: 27 January)

Event Time Altitude Azimuth Distance (km) Brightness Sun altitude
Rises 12:08:10 0° 358° (N) 2,456 9.9 -13.7°
Reaches altitude 10° 12:10:22 10° 347° (NNW) 1,577 8.9 -13.2°
Maximum altitude 12:13:19 29° 286° (WNW) 857 7.2 -12.6°
Drops below altitude 10° 12:16:15 10° 225° (SW) 1,566 8.9 -12.0°
Sets 12:18:26 0° 213° (SSW) 2,435 10.0 -11.6°
